• In India
  • List of Countries
  • For 7 days
  • Water Temperature
  • Satellite Maps
  • Weather Map
  • Weather Widgets
  • user-avatar
    Login

    Hourly Weather Zavadivka

    Today, 18 January, Friday

    Time Temperature Precipitation Wind Pressure Humidity
    00:00 0°C° 0 mm 5 mps 704 mmHg 89%
    01:00 0°C° 0 mm 5 mps 704 mmHg 89%
    02:00 0°C° 0 mm 5 mps 704 mmHg 89%
    03:00 0°C° 0.2 mm 4 mps 703 mmHg 90%
    04:00 0°C° 0.2 mm 4 mps 703 mmHg 90%
    05:00 0°C° 0.2 mm 4 mps 703 mmHg 91%
    06:00 +1°C° 0.5 mm 3 mps 703 mmHg 92%
    07:00 +1°C° 0.5 mm 2 mps 703 mmHg 93%
    08:00 +1°C° 0.5 mm 2 mps 703 mmHg 95%
    09:00 +2°C° 1 mm 1 mps 704 mmHg 95%
    10:00 +2°C° 1 mm 1 mps 704 mmHg 95%
    11:00 +2°C° 1 mm 1 mps 705 mmHg 95%
    12:00 +1°C° 0.7 mm 2 mps 705 mmHg 93%
    13:00 +1°C° 0.7 mm 2 mps 705 mmHg 92%
    14:00 -1°C° 0.7 mm 3 mps 706 mmHg 90%
    15:00 -1°C° 0.8 mm 3 mps 706 mmHg 91%
    16:00 -2°C° 0.8 mm 3 mps 706 mmHg 93%
    17:00 -3°C° 0.8 mm 2 mps 707 mmHg 94%
    18:00 -3°C° 0.4 mm 2 mps 707 mmHg 94%
    19:00 -3°C° 0.4 mm 2 mps 708 mmHg 95%
    20:00 -4°C° 0.4 mm 2 mps 709 mmHg 95%
    21:00 -4°C° 0.2 mm 2 mps 709 mmHg 95%
    22:00 -4°C° 0.2 mm 2 mps 710 mmHg 95%
    23:00 -4°C° 0.2 mm 2 mps 710 mmHg 95%

    Tomorrow, 19 January, Saturday

    Time Temperature Precipitation Wind Pressure Humidity
    00:00 -3°C° 0.1 mm 1 mps 711 mmHg 96%
    01:00 -3°C° 0.1 mm 1 mps 711 mmHg 96%
    02:00 -4°C° 0.1 mm 1 mps 711 mmHg 97%
    03:00 -4°C° 0 mm 1 mps 712 mmHg 97%
    04:00 -4°C° 0 mm 1 mps 712 mmHg 96%
    05:00 -4°C° 0 mm 1 mps 712 mmHg 96%
    06:00 -6°C° 0 mm 1 mps 712 mmHg 96%
    07:00 -7°C° 0 mm 0 mps 712 mmHg 97%
    08:00 -8°C° 0 mm 0 mps 712 mmHg 97%
    09:00 -7°C° 0 mm 0 mps 713 mmHg 93%
    10:00 -6°C° 0 mm 0 mps 713 mmHg 90%
    11:00 -4°C° 0 mm 0 mps 713 mmHg 87%
    12:00 -3°C° 0 mm 0 mps 713 mmHg 83%
    13:00 -3°C° 0 mm 0 mps 713 mmHg 78%
    14:00 -1°C° 0 mm 1 mps 713 mmHg 74%
    15:00 -2°C° 0 mm 1 mps 712 mmHg 78%
    16:00 -4°C° 0 mm 1 mps 712 mmHg 83%
    17:00 -6°C° 0 mm 1 mps 712 mmHg 87%
    18:00 -7°C° 0 mm 1 mps 712 mmHg 88%
    19:00 -7°C° 0 mm 1 mps 711 mmHg 89%
    20:00 -8°C° 0 mm 1 mps 711 mmHg 91%
    21:00 -8°C° 0 mm 1 mps 711 mmHg 89%
    22:00 -8°C° 0 mm 1 mps 711 mmHg 88%
    23:00 -8°C° 0 mm 1 mps 711 mmHg 87%

    Day after tomorrow, 20 January, Sunday

    Time Temperature Precipitation Wind Pressure Humidity
    00:00 -8°C° 0 mm 1 mps 711 mmHg 84%
    01:00 -8°C° 0 mm 1 mps 710 mmHg 81%
    02:00 -8°C° 0 mm 1 mps 710 mmHg 77%
    03:00 -7°C° 0 mm 1 mps 710 mmHg 78%
    04:00 -6°C° 0 mm 1 mps 709 mmHg 78%
    05:00 -4°C° 0 mm 1 mps 709 mmHg 78%
    06:00 -4°C° 0.2 mm 1 mps 709 mmHg 83%
    07:00 -3°C° 0.2 mm 1 mps 709 mmHg 87%
    08:00 -3°C° 0.2 mm 1 mps 708 mmHg 92%
    09:00 -3°C° 0.3 mm 0 mps 708 mmHg 93%
    10:00 -2°C° 0.3 mm 0 mps 708 mmHg 94%
    11:00 -2°C° 0.3 mm 0 mps 708 mmHg 94%
    12:00 -1°C° 0.6 mm 0 mps 708 mmHg 95%
    13:00 -1°C° 0.6 mm 0 mps 708 mmHg 95%
    14:00 -1°C° 0.6 mm 0 mps 708 mmHg 96%
    15:00 -1°C° 0.6 mm 0 mps 708 mmHg 97%
    16:00 -2°C° 0.6 mm 0 mps 708 mmHg 97%
    17:00 -2°C° 0.6 mm 0 mps 708 mmHg 98%
    18:00 -2°C° 0.4 mm 1 mps 708 mmHg 98%
    19:00 -2°C° 0.4 mm 1 mps 708 mmHg 98%
    20:00 -2°C° 0.4 mm 1 mps 708 mmHg 98%
    21:00 -3°C° 0.2 mm 1 mps 709 mmHg 98%
    22:00 -3°C° 0.2 mm 1 mps 709 mmHg 98%
    23:00 -3°C° 0.2 mm 1 mps 709 mmHg 98%

    21 January, Monday

    Time Temperature Precipitation Wind Pressure Humidity
    00:00 -4°C° 0.1 mm 1 mps 710 mmHg 98%
    01:00 -4°C° 0.1 mm 1 mps 710 mmHg 97%
    02:00 -6°C° 0.1 mm 1 mps 710 mmHg 97%
    03:00 -7°C° 0 mm 1 mps 710 mmHg 96%
    04:00 -8°C° 0 mm 1 mps 710 mmHg 95%
    05:00 -10°C° 0 mm 1 mps 710 mmHg 94%
    06:00 -10°C° 0 mm 1 mps 710 mmHg 93%
    07:00 -11°C° 0 mm 1 mps 711 mmHg 91%
    08:00 -11°C° 0 mm 1 mps 711 mmHg 90%
    09:00 -9°C° 0 mm 1 mps 712 mmHg 90%
    10:00 -7°C° 0 mm 1 mps 713 mmHg 91%
    11:00 -4°C° 0 mm 1 mps 713 mmHg 91%
    12:00 -4°C° 0 mm 1 mps 713 mmHg 90%
    13:00 -3°C° 0 mm 1 mps 713 mmHg 89%
    14:00 -5°C° 0 mm 2 mps 714 mmHg 89%
    15:00 -3°C° 0 mm 1 mps 714 mmHg 89%
    16:00 -4°C° 0 mm 1 mps 714 mmHg 90%
    17:00 -6°C° 0 mm 1 mps 714 mmHg 91%
    18:00 -7°C° 0 mm 1 mps 714 mmHg 92%
    19:00 -9°C° 0 mm 1 mps 714 mmHg 93%
    20:00 -11°C° 0 mm 1 mps 713 mmHg 94%
    21:00 -11°C° 0 mm 1 mps 713 mmHg 94%
    22:00 -12°C° 0 mm 1 mps 713 mmHg 94%
    23:00 -12°C° 0 mm 1 mps 713 mmHg 94%

    22 January, Tuesday

    Time Temperature Precipitation Wind Pressure Humidity
    00:00 -12°C° 0 mm 1 mps 713 mmHg 92%
    01:00 -12°C° 0 mm 1 mps 713 mmHg 90%
    02:00 -12°C° 0 mm 1 mps 712 mmHg 88%
    03:00 -12°C° 0 mm 1 mps 712 mmHg 87%
    04:00 -12°C° 0 mm 1 mps 712 mmHg 86%
    05:00 -11°C° 0 mm 1 mps 711 mmHg 85%
    06:00 -11°C° 0 mm 1 mps 711 mmHg 86%
    07:00 -11°C° 0 mm 1 mps 711 mmHg 88%
    08:00 -11°C° 0 mm 1 mps 710 mmHg 89%
    09:00 -9°C° 0 mm 1 mps 710 mmHg 89%
    10:00 -7°C° 0 mm 1 mps 710 mmHg 90%
    11:00 -4°C° 0 mm 1 mps 710 mmHg 91%
    12:00 -2°C° 0 mm 1 mps 709 mmHg 89%
    13:00 -1°C° 0 mm 1 mps 709 mmHg 88%
    14:00 0°C° 0 mm 1 mps 708 mmHg 86%
    15:00 -1°C° 0 mm 1 mps 707 mmHg 88%
    16:00 -3°C° 0 mm 1 mps 706 mmHg 91%
    17:00 -4°C° 0 mm 1 mps 706 mmHg 93%
    18:00 -4°C° 0 mm 1 mps 705 mmHg 92%
    19:00 -4°C° 0 mm 1 mps 704 mmHg 91%
    20:00 -6°C° 0 mm 2 mps 704 mmHg 90%
    21:00 -4°C° 0 mm 1 mps 703 mmHg 88%
    22:00 -3°C° 0 mm 1 mps 703 mmHg 87%
    23:00 -3°C° 0 mm 1 mps 702 mmHg 85%

    23 January, Wednesday

    Time Temperature Precipitation Wind Pressure Humidity
    00:00 -2°C° 0.1 mm 1 mps 702 mmHg 87%
    01:00 -2°C° 0.1 mm 1 mps 701 mmHg 88%
    02:00 -2°C° 0.1 mm 1 mps 700 mmHg 89%
    03:00 -2°C° 0.1 mm 1 mps 700 mmHg 90%
    04:00 -1°C° 0.1 mm 1 mps 699 mmHg 91%
    05:00 -1°C° 0.1 mm 1 mps 699 mmHg 92%
    06:00 -1°C° 0.2 mm 1 mps 698 mmHg 92%
    07:00 0°C° 0.2 mm 1 mps 698 mmHg 92%
    08:00 0°C° 0.2 mm 1 mps 698 mmHg 93%
    09:00 +1°C° 0.1 mm 1 mps 698 mmHg 93%
    10:00 +1°C° 0.1 mm 2 mps 698 mmHg 94%
    11:00 +1°C° 0.1 mm 2 mps 698 mmHg 94%
    12:00 +2°C° 0 mm 2 mps 698 mmHg 96%
    13:00 +2°C° 0 mm 2 mps 697 mmHg 98%
    14:00 +3°C° 0 mm 1 mps 697 mmHg 99%
    15:00 +3°C° 0 mm 1 mps 697 mmHg 99%
    16:00 +2°C° 0 mm 1 mps 697 mmHg 98%
    17:00 +2°C° 0 mm 1 mps 696 mmHg 98%
    18:00 +2°C° 0.1 mm 1 mps 697 mmHg 96%
    19:00 +2°C° 0.1 mm 1 mps 697 mmHg 94%
    20:00 +1°C° 0.1 mm 1 mps 697 mmHg 92%
    21:00 +1°C° 0 mm 1 mps 697 mmHg 92%
    22:00 +1°C° 0 mm 1 mps 697 mmHg 91%
    23:00 +1°C° 0 mm 1 mps 697 mmHg 90%
    Show more